TimeIST,TemperatureF,Dew PointF,Humidity,Sea Level PressureIn,VisibilityMPH,Wind Direction,Wind SpeedMPH,Gust SpeedMPH,PrecipitationIn,Events,Conditions,WindDirDegrees,DateUTC
12:30 AM,50.0,50.0,100,30.12,0.2,Calm,Calm,-,N/A,Fog,Fog,0,2013-01-22 19:00:00
1:00 AM,48.2,48.2,100,30.12,0.3,Calm,Calm,-,N/A,Fog,Shallow Fog,0,2013-01-22 19:30:00
1:30 AM,48.2,48.2,100,30.12,0.3,Calm,Calm,-,N/A,Fog,Shallow Fog,0,2013-01-22 20:00:00
2:00 AM,48.2,48.2,100,30.12,0.3,Calm,Calm,-,N/A,Fog,Shallow Fog,0,2013-01-22 20:30:00
2:30 AM,48.2,48.2,100,30.12,0.3,Calm,Calm,-,N/A,Fog,Shallow Fog,0,2013-01-22 21:00:00
3:00 AM,48.2,48.2,100,30.12,0.3,Calm,Calm,-,N/A,Fog,Shallow Fog,0,2013-01-22 21:30:00
3:30 AM,46.4,46.4,100,30.12,0.2,Calm,Calm,-,N/A,Fog,Fog,0,2013-01-22 22:00:00
4:00 AM,46.4,46.4,100,30.12,0.2,Calm,Calm,-,N/A,Fog,Fog,0,2013-01-22 22:30:00
4:30 AM,46.4,46.4,100,30.09,0.2,Calm,Calm,-,N/A,Fog,Fog,0,2013-01-22 23:00:00
5:00 AM,42.8,42.8,100,30.12,0.2,Calm,Calm,-,N/A,Fog,Fog,0,2013-01-22 23:30:00
5:30 AM,41.0,41.0,100,30.12,0.2,Calm,Calm,-,N/A,Fog,Fog,0,2013-01-23 00:00:00
6:00 AM,41.0,41.0,100,30.12,0.2,Calm,Calm,-,N/A,Fog,Fog,0,2013-01-23 00:30:00
6:30 AM,42.8,42.8,100,30.12,0.3,Calm,Calm,-,N/A,Fog,Fog,0,2013-01-23 01:00:00
7:00 AM,44.6,44.6,100,30.12,0.3,Calm,Calm,-,N/A,Fog,Fog,0,2013-01-23 01:30:00
7:30 AM,44.6,44.6,100,30.15,0.4,Calm,Calm,-,N/A,Fog,Shallow Fog,0,2013-01-23 02:00:00
8:00 AM,44.6,44.6,100,30.15,0.4,Calm,Calm,-,N/A,Fog,Shallow Fog,0,2013-01-23 02:30:00
8:30 AM,44.6,44.6,100,30.15,0.4,Calm,Calm,-,N/A,Fog,Shallow Fog,0,2013-01-23 03:00:00
9:00 AM,48.2,48.2,100,30.15,0.5,WSW,4.6,-,N/A,Fog,Shallow Fog,240,2013-01-23 03:30:00
9:30 AM,50.0,50.0,100,30.18,0.7,West,2.3,-,N/A,,Mist,260,2013-01-23 04:00:00
10:00 AM,51.8,51.8,100,30.18,0.8,West,4.6,-,N/A,,Mist,260,2013-01-23 04:30:00
10:30 AM,53.6,50.0,88,30.18,0.9,West,4.6,-,N/A,,Mist,260,2013-01-23 05:00:00
11:30 AM,59.0,50.0,72,30.18,1.1,West,5.8,-,N/A,,Smoke,260,2013-01-23 06:00:00
12:00 PM,60.8,48.2,63,30.15,1.2,West,5.8,-,N/A,,Smoke,260,2013-01-23 06:30:00
12:30 PM,62.6,46.4,55,30.15,1.6,West,8.1,-,N/A,,Haze,270,2013-01-23 07:00:00
1:00 PM,62.6,46.4,55,30.12,1.7,WNW,9.2,-,N/A,,Haze,300,2013-01-23 07:30:00
1:30 PM,66.2,35.6,32,30.12,1.8,WNW,4.6,-,N/A,,Haze,300,2013-01-23 08:00:00
2:00 PM,66.2,37.4,35,30.12,1.8,NW,6.9,-,N/A,,Haze,310,2013-01-23 08:30:00
2:30 PM,66.2,37.4,35,30.09,1.8,NW,6.9,-,N/A,,Haze,310,2013-01-23 09:00:00
3:00 PM,66.2,37.4,35,30.09,1.8,NW,6.9,-,N/A,,Haze,320,2013-01-23 09:30:00
4:00 PM,66.2,37.4,35,30.06,2.5,NW,6.9,-,N/A,,Haze,310,2013-01-23 10:30:00
4:30 PM,64.4,37.4,37,30.06,2.5,NW,5.8,-,N/A,,Haze,310,2013-01-23 11:00:00
5:00 PM,64.4,41.0,42,30.09,2.2,NW,4.6,-,N/A,,Haze,310,2013-01-23 11:30:00
5:30 PM,64.4,41.0,42,30.09,-9999.0,NW,4.6,-,N/A,,Haze,320,2013-01-23 12:00:00
6:00 PM,62.6,41.0,45,30.09,-9999.0,WNW,4.6,-,N/A,,Haze,290,2013-01-23 12:30:00
7:00 PM,59.0,44.6,59,30.09,1.6,West,4.6,-,N/A,,Smoke,260,2013-01-23 13:30:00
7:30 PM,57.2,44.6,63,30.09,1.3,West,4.6,-,N/A,,Smoke,280,2013-01-23 14:00:00
8:00 PM,55.4,46.4,72,30.12,1.2,West,4.6,-,N/A,,Smoke,280,2013-01-23 14:30:00
8:30 PM,55.4,46.4,72,30.12,1.1,WSW,3.5,-,N/A,,Smoke,250,2013-01-23 15:00:00
9:00 PM,53.6,48.2,82,30.12,1.0,West,3.5,-,N/A,,Mist,260,2013-01-23 15:30:00
10:00 PM,53.6,48.2,82,30.12,0.7,Calm,Calm,-,N/A,,Mist,0,2013-01-23 16:30:00
10:30 PM,53.6,50.0,88,30.12,0.7,Calm,Calm,-,N/A,,Mist,0,2013-01-23 17:00:00
11:00 PM,53.6,50.0,88,30.12,0.7,Calm,Calm,-,N/A,,Mist,0,2013-01-23 17:30:00
11:30 PM,51.8,50.0,94,30.12,0.7,Calm,Calm,-,N/A,,Mist,0,2013-01-23 18:00:00